Date,TemperatureHighF,TemperatureAvgF,TemperatureLowF,DewpointHighF,DewpointAvgF,DewpointLowF,HumidityHigh,HumidityAvg,HumidityLow,PressureMaxIn,PressureMinIn,WindSpeedMaxMPH,WindSpeedAvgMPH,GustSpeedMaxMPH,PrecipitationSumIn
2013-2-1,54.5,45.5,39.4,48.7,44.4,39.1,99,96,77,30.21,30.13,2,0,4,0.01
2013-2-2,41.7,39.4,36.9,41.5,39.2,36.6,99,99,99,30.19,30.05,2,0,5,0.00
2013-2-3,48.9,42.9,37.4,46.1,42.0,37.1,99,97,86,30.10,30.01,1,0,4,0.07
2013-2-4,52.7,46.4,43.2,45.4,43.9,42.9,99,91,72,30.01,29.69,4,0,7,0.00
2013-2-5,51.8,46.2,43.5,46.2,43.7,42.0,99,91,72,29.74,29.64,2,0,9,0.13
2013-2-6,51.3,45.6,43.3,43.3,41.4,39.7,97,86,67,29.85,29.59,2,0,11,0.06
2013-2-7,56.8,43.0,32.5,41.9,37.0,31.8,97,81,48,29.99,29.60,9,1,17,0.05
2013-2-8,47.8,37.1,30.0,40.6,34.5,29.8,99,91,68,30.11,29.99,1,0,6,0.00
2013-2-9,43.0,40.7,38.1,42.5,39.9,37.1,99,97,92,30.14,30.06,2,0,4,0.04
2013-2-10,50.5,40.1,34.0,43.4,37.7,33.7,99,92,68,30.17,30.12,1,0,4,0.00
2013-2-11,47.3,42.4,37.8,42.8,39.5,36.9,99,90,74,30.16,30.12,2,0,6,0.01
2013-2-12,49.6,45.6,41.9,46.5,44.2,40.6,99,95,83,30.20,30.09,6,1,14,0.06
2013-2-17,47.1,41.1,37.4,40.2,38.4,35.4,99,91,64,30.05,29.91,2,0,6,0.02
2013-2-18,46.0,40.2,35.6,39.6,37.1,35.3,99,89,68,29.90,29.57,2,0,4,0.00
2013-2-19,56.1,41.7,34.0,38.7,35.8,32.7,98,81,50,29.81,29.54,3,0,5,0.00
2013-2-20,46.0,39.2,32.9,39.9,36.8,32.1,99,92,71,29.84,29.79,2,0,4,0.04
2013-2-21,43.7,41.8,38.5,40.3,39.2,38.1,99,91,81,29.87,29.82,2,1,7,0.02
2013-2-22,45.5,42.4,39.4,42.6,39.2,33.9,97,89,78,29.85,29.50,8,1,14,0.14
2013-2-23,51.3,42.7,38.8,39.0,37.1,34.9,93,81,60,30.17,29.71,2,0,5,0.00
2013-2-24,47.7,44.0,40.3,38.9,37.1,35.5,88,77,65,30.18,29.75,2,0,5,0.00
2013-2-25,54.1,43.7,35.8,40.4,36.9,30.2,95,78,48,30.11,29.69,8,2,17,0.06
2013-2-26,48.7,41.6,32.0,37.9,33.8,31.2,98,76,53,30.15,30.00,4,0,8,0.00
2013-2-27,49.6,43.8,37.6,43.9,41.2,37.1,99,91,71,30.10,30.01,2,0,4,0.33
2013-2-28,52.0,47.2,41.7,50.2,46.2,41.5,99,96,91,30.13,29.99,2,0,8,0.15